Location: Arclight Observatory
(36.5667°N, 87.3333°W)
Time: 17:34:20
(UTC-06:00)

Hubble Space Telescope - Visible Passes

Search period start: 17 February 2018 00:00
Search period end: 27 February 2018 00:00
Orbit: 537 x 541 km, 28.5° (Epoch: 16 February)

Date Brightness Start Highest point End Pass type
(mag) Time Alt. Az. Time Alt. Az. Time Alt. Az.
18 Feb 3.4 05:02:10 10° S 05:03:30 11° SSE 05:04:50 10° SE visible
19 Feb 3.2 04:51:20 11° S 04:53:07 14° SSE 04:55:14 10° SE visible
20 Feb 3.0 04:41:50 15° S 04:42:44 16° SSE 04:45:18 10° SE visible
21 Feb 2.8 04:32:15 18° SSE 04:32:21 18° SSE 04:35:14 10° ESE visible
22 Feb 2.8 04:22:37 20° SSE 04:22:37 20° SSE 04:25:06 10° ESE visible
22 Feb 2.4 05:59:13 10° WSW 06:02:41 26° S 06:06:10 10° SE visible
23 Feb 2.9 04:12:57 19° SE 04:12:57 19° SE 04:14:54 10° ESE visible
23 Feb 2.4 05:48:54 10° WSW 05:52:21 26° S 05:55:49 10° SE visible
24 Feb 3.2 04:03:15 17° SE 04:03:15 17° SE 04:04:38 10° ESE visible
24 Feb 2.4 05:38:37 10° WSW 05:42:00 24° S 05:45:23 10° SE visible
25 Feb 3.5 03:53:33 14° SE 03:53:33 14° SE 03:54:22 10° ESE visible
25 Feb 2.4 05:28:54 13° WSW 05:31:39 23° S 05:34:56 10° SE visible
26 Feb 3.8 03:43:51 11° ESE 03:43:51 11° ESE 03:44:03 10° ESE visible
26 Feb 2.5 05:19:12 15° SW 05:21:17 21° S 05:24:26 10° SE visible
